Location: Newark
(44.6028°N, 124.0883°W)
Time: 16:01:31
(UTC+00:00)

A-11 Canister half - Pass Details

Date: 31 October 2019
Orbit: 1514 x 1686 km, 47.2° (Epoch: 13 November)

Event Time Altitude Azimuth Distance (km) Brightness Sun altitude
Exits shadow 13:45:14 15° 286° (WNW) 3,466 10.2 -12.5°
Maximum altitude 13:53:01 46° 220° (SW) 2,022 9.4 -11.1°
Drops below altitude 10° 14:01:47 10° 151° (SSE) 3,709 11.6 -9.6°
Sets 14:04:56 0° 146° (SE) 4,673 12.3 -9.0°
